User: anonymous   Login
Location: ROBOsky.com Wild Flower Ridge Observatory
(43.9736°N, 79.9739°W)
Time: 18:53:35
(UTC-04:00)
Language:

Cosmos 1190 Rocket - Orbit

View from above orbital plane
View from above orbital plane
View from above satellite
View from above satellite

Ground track
Ground track

The orbit data is extracted from the following two-line orbital elements,

1 11870U 80056B   18109.14920340  .00000032  00000-0  19622-4 0  9997
2 11870  74.0548   5.7757 0017360 243.8539 116.0829 14.36891064978754
Epoch (UTC): 19 April 2018 03:34:51
Eccentricity: 0.0017360
inclination: 74.0548°
perigee height: 756 km
apogee height: 781 km
right ascension of ascending node: 5.7757°
argument of perigee: 243.8539°
revolutions per day: 14.36891064
mean anomaly at epoch: 116.0829°
orbit number at epoch: 97875

The dashed part of the orbit path shows where the satellite is in the earth's shadow,  

DLR